LXJ952 KEYW-KGAO

Flight info

Callsign LXJ952
Flight time 1h 32m
Altitude 43000
Route BUFTT1 GUFFS THMPR Y290 BACCA
Aircraft C750/M-VGDW/C

Departure

Time 2026-05-07 16:55
Airport Key West International Airport (KEYW)

Arrival

Time 2026-05-07 18:28
Airport South Lafourche Leonard Miller Jr Airport (KGAO)
Time Latitude Longitude Altitude Speed Heading
2026-05-07 16:47 24.55441 -81.75693 13 ft 0 kts 357°
2026-05-07 16:52 24.55462 -81.75718 13 ft 11 kts 274°
2026-05-07 16:52 24.55490 -81.75784 12 ft 10 kts 356°
2026-05-07 16:52 24.55528 -81.75840 11 ft 15 kts 268°
2026-05-07 16:53 24.55527 -81.76010 7 ft 29 kts 269°
2026-05-07 16:53 24.55524 -81.76230 5 ft 28 kts 269°
2026-05-07 16:53 24.55522 -81.76426 4 ft 24 kts 269°
2026-05-07 16:53 24.55521 -81.76591 5 ft 19 kts 270°
2026-05-07 16:54 24.55593 -81.76658 6 ft 9 kts
2026-05-07 16:54 24.55607 -81.76628 6 ft 0 kts 90°
2026-05-07 16:54 24.55610 -81.76363 3 ft 94 kts 89°
2026-05-07 16:55 24.55619 -81.75321 58 ft 160 kts 91°
2026-05-07 16:55 24.55628 -81.73992 479 ft 178 kts 91°
2026-05-07 16:55 24.55898 -81.72715 1318 ft 173 kts 64°
2026-05-07 16:55 24.56678 -81.71715 2098 ft 176 kts 39°
2026-05-07 16:56 24.57817 -81.71193 2795 ft 181 kts 11°
2026-05-07 16:56 24.59076 -81.71213 3583 ft 182 kts 355°
2026-05-07 16:56 24.61891 -81.71368 4405 ft 229 kts 357°
2026-05-07 16:57 24.63588 -81.71441 4883 ft 257 kts 357°
2026-05-07 16:57 24.65451 -81.71528 5477 ft 275 kts 358°
2026-05-07 16:57 24.67366 -81.71619 6496 ft 276 kts 358°
2026-05-07 16:57 24.69297 -81.71709 7421 ft 279 kts 358°
2026-05-07 16:58 24.71237 -81.71681 8399 ft 283 kts
2026-05-07 16:58 24.73018 -81.70768 9375 ft 285 kts 36°
2026-05-07 16:58 24.74440 -81.69253 10344 ft 288 kts 45°
2026-05-07 16:58 24.75848 -81.67567 10685 ft 312 kts 46°
2026-05-07 16:59 24.77380 -81.65740 10853 ft 338 kts 46°
2026-05-07 16:59 24.79045 -81.63811 11271 ft 351 kts 45°
2026-05-07 16:59 24.80723 -81.61869 12165 ft 350 kts 45°
2026-05-07 16:59 24.82422 -81.59939 12870 ft 353 kts 42°
2026-05-07 17:00 24.84522 -81.58527 13506 ft 355 kts 23°
2026-05-07 17:00 24.86850 -81.57637 14283 ft 355 kts 18°
2026-05-07 17:00 24.89216 -81.56804 14909 ft 359 kts 17°
2026-05-07 17:00 24.91603 -81.55955 15543 ft 362 kts 17°
2026-05-07 17:01 24.94005 -81.55080 16199 ft 366 kts 18°
2026-05-07 17:01 24.96435 -81.54195 16861 ft 369 kts 17°
2026-05-07 17:01 24.98889 -81.53312 17549 ft 373 kts 17°
2026-05-07 17:01 25.01363 -81.52421 18258 ft 376 kts 17°
2026-05-07 17:02 25.03866 -81.51514 18879 ft 380 kts 16°
2026-05-07 17:02 25.05537 -81.50909 19290 ft 383 kts 16°
2026-05-07 17:02 25.08082 -81.49988 19923 ft 387 kts 16°
2026-05-07 17:02 25.10653 -81.49058 20565 ft 391 kts 16°
2026-05-07 17:03 25.13254 -81.48115 21213 ft 395 kts 16°
2026-05-07 17:03 25.15882 -81.47163 21851 ft 400 kts 15°
2026-05-07 17:03 25.18545 -81.46198 22500 ft 405 kts 15°
2026-05-07 17:03 25.21234 -81.45222 23139 ft 409 kts 15°
2026-05-07 17:04 25.23951 -81.44236 23757 ft 414 kts 15°
2026-05-07 17:04 25.26697 -81.43239 24300 ft 418 kts 15°
2026-05-07 17:04 25.29469 -81.42232 24852 ft 421 kts 15°
2026-05-07 17:04 25.32267 -81.41215 25398 ft 426 kts 15°
2026-05-07 17:05 25.35091 -81.40189 25965 ft 429 kts 15°
2026-05-07 17:05 25.37940 -81.39152 26524 ft 433 kts 15°
2026-05-07 17:05 25.40825 -81.38154 27038 ft 436 kts 12°
2026-05-07 17:05 25.43811 -81.37583 27578 ft 436 kts
2026-05-07 17:06 25.46841 -81.37481 28132 ft 437 kts 355°
2026-05-07 17:06 25.49862 -81.37859 28684 ft 438 kts 347°
2026-05-07 17:06 25.52813 -81.38711 29234 ft 440 kts 340°
2026-05-07 17:06 25.55638 -81.40029 29759 ft 442 kts 332°
2026-05-07 17:07 25.58256 -81.41733 30240 ft 444 kts 327°
2026-05-07 17:07 25.60923 -81.43574 30707 ft 447 kts 327°
2026-05-07 17:07 25.63579 -81.45383 31194 ft 448 kts 327°
2026-05-07 17:07 25.66220 -81.47186 31902 ft 444 kts 327°
2026-05-07 17:08 25.68829 -81.48983 32587 ft 441 kts 326°
2026-05-07 17:08 25.71395 -81.50753 33252 ft 438 kts 326°
2026-05-07 17:08 25.73981 -81.52528 33932 ft 436 kts 326°
2026-05-07 17:08 25.76554 -81.54293 34536 ft 434 kts 326°
2026-05-07 17:09 25.79113 -81.56055 35088 ft 433 kts 326°
2026-05-07 17:09 25.81668 -81.57817 35651 ft 431 kts 326°
2026-05-07 17:09 25.84209 -81.59566 36220 ft 430 kts 326°
2026-05-07 17:09 25.86749 -81.61315 36784 ft 429 kts 325°
2026-05-07 17:10 25.89240 -81.63119 37321 ft 427 kts 322°
2026-05-07 17:10 25.91639 -81.65064 37908 ft 425 kts 321°
2026-05-07 17:10 25.94027 -81.66992 38546 ft 424 kts 321°
2026-05-07 17:10 25.96415 -81.68901 39095 ft 422 kts 321°
2026-05-07 17:11 25.98795 -81.70809 39609 ft 421 kts 321°
2026-05-07 17:11 26.01159 -81.72715 40115 ft 420 kts 321°
2026-05-07 17:11 26.03521 -81.74621 40597 ft 419 kts 321°
2026-05-07 17:11 26.05875 -81.76516 41056 ft 418 kts 321°
2026-05-07 17:12 26.08228 -81.78409 41509 ft 417 kts 321°
2026-05-07 17:12 26.10574 -81.80301 41960 ft 415 kts 321°
2026-05-07 17:12 26.12906 -81.82184 42391 ft 414 kts 321°
2026-05-07 17:12 26.15239 -81.84067 42798 ft 413 kts 321°
2026-05-07 17:13 26.17559 -81.85939 43125 ft 412 kts 321°
2026-05-07 17:13 26.19907 -81.87838 43086 ft 421 kts 321°
2026-05-07 17:13 26.24694 -81.91709 43099 ft 435 kts 321°
2026-05-07 17:14 26.29667 -81.95735 43103 ft 448 kts 321°
2026-05-07 17:14 26.34771 -81.99870 43092 ft 458 kts 321°
2026-05-07 17:15 26.39961 -82.04079 43090 ft 464 kts 321°
2026-05-07 17:15 26.45182 -82.08319 43095 ft 464 kts 321°
2026-05-07 17:16 26.50398 -82.12560 43089 ft 463 kts 321°
2026-05-07 17:16 26.55601 -82.16796 43090 ft 463 kts 321°
2026-05-07 17:17 26.60810 -82.21040 43095 ft 463 kts 321°
2026-05-07 17:17 26.66011 -82.25284 43089 ft 463 kts 321°
2026-05-07 17:18 26.71211 -82.29531 43093 ft 463 kts 321°
2026-05-07 17:18 26.76320 -82.33898 43060 ft 460 kts 315°
2026-05-07 17:19 26.80525 -82.39235 43103 ft 457 kts 307°
2026-05-07 17:19 26.84582 -82.44723 43100 ft 458 kts 308°
2026-05-07 17:20 26.88625 -82.50225 43099 ft 457 kts 307°
2026-05-07 17:20 26.92665 -82.55723 43094 ft 457 kts 307°
2026-05-07 17:21 26.96705 -82.61229 43094 ft 457 kts 307°
2026-05-07 17:21 27.00746 -82.66742 43100 ft 457 kts 307°
2026-05-07 17:22 27.04779 -82.72251 43092 ft 457 kts 307°
2026-05-07 17:22 27.08783 -82.77730 43093 ft 457 kts 307°
2026-05-07 17:23 27.12415 -82.83542 43080 ft 454 kts 297°
2026-05-07 17:23 27.14593 -82.90155 43077 ft 453 kts 283°
2026-05-07 17:24 27.15912 -82.97072 43095 ft 453 kts 282°
2026-05-07 17:24 27.17247 -83.03995 43088 ft 454 kts 282°
2026-05-07 17:25 27.18560 -83.10921 43089 ft 453 kts 282°
2026-05-07 17:25 27.19880 -83.17843 43092 ft 453 kts 282°
2026-05-07 17:26 27.21193 -83.24774 43092 ft 454 kts 282°
2026-05-07 17:26 27.22503 -83.31702 43087 ft 454 kts 282°
2026-05-07 17:27 27.23810 -83.38637 43087 ft 454 kts 282°
2026-05-07 17:27 27.25115 -83.45575 43084 ft 454 kts 282°
2026-05-07 17:28 27.26415 -83.52509 43086 ft 453 kts 282°
2026-05-07 17:28 27.27702 -83.59397 43086 ft 454 kts 282°
2026-05-07 17:29 27.28996 -83.66338 43089 ft 454 kts 282°
2026-05-07 17:29 27.30285 -83.73276 43084 ft 454 kts 282°
2026-05-07 17:30 27.31573 -83.80224 43086 ft 454 kts 282°
2026-05-07 17:30 27.32861 -83.87197 43089 ft 456 kts 281°
2026-05-07 17:31 27.34147 -83.94174 43082 ft 456 kts 281°
2026-05-07 17:31 27.35428 -84.01152 43081 ft 456 kts 281°
2026-05-07 17:32 27.36708 -84.08139 43080 ft 456 kts 281°
2026-05-07 17:32 27.37767 -84.13937 43075 ft 456 kts 281°
2026-05-07 17:33 27.39254 -84.22104 43074 ft 456 kts 281°
2026-05-07 17:33 27.40523 -84.29090 43072 ft 456 kts 281°
2026-05-07 17:34 27.41787 -84.36076 43068 ft 456 kts 281°
2026-05-07 17:34 27.43049 -84.43067 43070 ft 456 kts 281°
2026-05-07 17:35 27.44298 -84.50013 43075 ft 456 kts 281°
2026-05-07 17:35 27.45553 -84.57012 43076 ft 456 kts 281°
2026-05-07 17:36 27.46803 -84.64003 43075 ft 456 kts 281°
2026-05-07 17:36 27.48049 -84.70993 43071 ft 455 kts 281°
2026-05-07 17:37 27.49293 -84.77989 43077 ft 455 kts 281°
2026-05-07 17:37 27.50531 -84.84980 43077 ft 455 kts 281°
2026-05-07 17:38 27.51766 -84.91973 43069 ft 455 kts 281°
2026-05-07 17:38 27.52996 -84.98956 43071 ft 455 kts 281°
2026-05-07 17:39 27.54220 -85.05931 43066 ft 455 kts 281°
2026-05-07 17:39 27.55445 -85.12932 43064 ft 455 kts 280°
2026-05-07 17:40 27.56663 -85.19916 43059 ft 454 kts 280°
2026-05-07 17:40 27.57873 -85.26879 43050 ft 454 kts 280°
2026-05-07 17:41 27.59130 -85.33818 43038 ft 455 kts 284°
2026-05-07 17:41 27.61341 -85.40494 43065 ft 456 kts 290°
2026-05-07 17:42 27.63679 -85.47127 43067 ft 456 kts 290°
2026-05-07 17:42 27.66035 -85.53777 43063 ft 455 kts 290°
2026-05-07 17:43 27.68375 -85.60410 43065 ft 455 kts 290°
2026-05-07 17:43 27.70713 -85.67047 43061 ft 455 kts 290°
2026-05-07 17:44 27.73043 -85.73671 43063 ft 455 kts 290°
2026-05-07 17:44 27.75372 -85.80307 43061 ft 454 kts 290°
2026-05-07 17:45 27.77697 -85.86941 43064 ft 454 kts 289°
2026-05-07 17:45 27.80018 -85.93575 43060 ft 454 kts 289°
2026-05-07 17:46 27.82332 -86.00203 43060 ft 454 kts 289°
2026-05-07 17:46 27.84642 -86.06831 43049 ft 453 kts 289°
2026-05-07 17:47 27.86950 -86.13463 43048 ft 453 kts 289°
2026-05-07 17:47 27.89252 -86.20091 43045 ft 453 kts 289°
2026-05-07 17:48 27.91543 -86.26702 43050 ft 455 kts 289°
2026-05-07 17:48 27.93861 -86.33400 43055 ft 455 kts 289°
2026-05-07 17:49 27.96162 -86.40062 43056 ft 454 kts 289°
2026-05-07 17:49 27.98442 -86.46674 43057 ft 454 kts 289°
2026-05-07 17:50 28.00733 -86.53329 43055 ft 454 kts 289°
2026-05-07 17:50 28.03018 -86.59983 43054 ft 453 kts 289°
2026-05-07 17:51 28.05297 -86.66629 43053 ft 453 kts 289°
2026-05-07 17:51 28.07573 -86.73278 43059 ft 453 kts 289°
2026-05-07 17:52 28.09845 -86.79927 43057 ft 452 kts 289°
2026-05-07 17:52 28.12111 -86.86573 43054 ft 452 kts 289°
2026-05-07 17:53 28.13990 -86.92090 43057 ft 452 kts 288°
2026-05-07 17:53 28.16625 -86.99845 43053 ft 451 kts 288°
2026-05-07 17:54 28.18496 -87.05359 43053 ft 451 kts 288°
2026-05-07 17:54 28.20741 -87.11989 43054 ft 450 kts 288°
2026-05-07 17:55 28.22982 -87.18621 43056 ft 450 kts 288°
2026-05-07 17:55 28.25217 -87.25246 43058 ft 450 kts 288°
2026-05-07 17:56 28.27447 -87.31866 43045 ft 449 kts 288°
2026-05-07 17:56 28.29673 -87.38490 43053 ft 449 kts 288°
2026-05-07 17:57 28.31894 -87.45108 43057 ft 449 kts 288°
2026-05-07 17:57 28.34110 -87.51726 43053 ft 448 kts 288°
2026-05-07 17:58 28.36323 -87.58347 43056 ft 448 kts 288°
2026-05-07 17:58 28.38533 -87.64968 43058 ft 448 kts 288°
2026-05-07 17:59 28.40735 -87.71583 43052 ft 448 kts 288°
2026-05-07 17:59 28.42922 -87.78161 43063 ft 448 kts 288°
2026-05-07 18:00 28.45131 -87.84818 43058 ft 447 kts 288°
2026-05-07 18:00 28.47307 -87.91388 43055 ft 447 kts 288°
2026-05-07 18:01 28.48395 -87.94678 42875 ft 440 kts 288°
2026-05-07 18:01 28.49463 -87.97903 42250 ft 429 kts 288°
2026-05-07 18:01 28.50493 -88.01020 41689 ft 415 kts 287°
2026-05-07 18:01 28.51490 -88.04047 41154 ft 403 kts 287°
2026-05-07 18:02 28.53404 -88.09862 40122 ft 385 kts 287°
2026-05-07 18:02 28.54336 -88.12698 39625 ft 383 kts 287°
2026-05-07 18:02 28.55272 -88.15548 39125 ft 386 kts 287°
2026-05-07 18:03 28.56218 -88.18433 38602 ft 394 kts 287°
2026-05-07 18:03 28.57180 -88.21364 38061 ft 399 kts 287°
2026-05-07 18:03 28.58161 -88.24349 37529 ft 403 kts 287°
2026-05-07 18:03 28.59143 -88.27347 36995 ft 406 kts 287°
2026-05-07 18:04 28.60131 -88.30364 36455 ft 407 kts 287°
2026-05-07 18:04 28.61121 -88.33391 35910 ft 409 kts 287°
2026-05-07 18:04 28.62113 -88.36428 35375 ft 411 kts 286°
2026-05-07 18:04 28.63111 -88.39485 34832 ft 412 kts 286°
2026-05-07 18:05 28.64110 -88.42548 34289 ft 414 kts 286°
2026-05-07 18:05 28.65114 -88.45628 33707 ft 415 kts 286°
2026-05-07 18:05 28.66118 -88.48711 33159 ft 417 kts 286°
2026-05-07 18:05 28.67128 -88.51819 32607 ft 420 kts 286°
2026-05-07 18:06 28.68144 -88.54946 32052 ft 423 kts 286°
2026-05-07 18:06 28.69169 -88.58098 31487 ft 426 kts 286°
2026-05-07 18:06 28.70200 -88.61275 30927 ft 428 kts 286°
2026-05-07 18:06 28.71234 -88.64468 30362 ft 431 kts 286°
2026-05-07 18:07 28.72269 -88.67658 29749 ft 428 kts 286°
2026-05-07 18:07 28.73279 -88.70774 29199 ft 422 kts 286°
2026-05-07 18:07 28.74286 -88.73892 28648 ft 418 kts 286°
2026-05-07 18:07 28.75283 -88.76984 28095 ft 414 kts 286°
2026-05-07 18:08 28.76274 -88.80055 27550 ft 411 kts 286°
2026-05-07 18:08 28.77256 -88.83097 27009 ft 407 kts 286°
2026-05-07 18:08 28.78228 -88.86117 26475 ft 404 kts 286°
2026-05-07 18:08 28.79189 -88.89101 25943 ft 400 kts 286°
2026-05-07 18:09 28.80144 -88.92072 25418 ft 397 kts 286°
2026-05-07 18:09 28.81090 -88.95015 24898 ft 394 kts 286°
2026-05-07 18:09 28.82028 -88.97937 24379 ft 391 kts 286°
2026-05-07 18:09 28.82957 -89.00835 23865 ft 388 kts 286°
2026-05-07 18:10 28.83878 -89.03710 23314 ft 384 kts 286°
2026-05-07 18:10 28.84790 -89.06555 22807 ft 381 kts 286°
2026-05-07 18:10 28.85697 -89.09390 22305 ft 379 kts 286°
2026-05-07 18:10 28.86598 -89.12210 21807 ft 377 kts 286°
2026-05-07 18:11 28.87493 -89.15013 21310 ft 375 kts 286°
2026-05-07 18:11 28.88083 -89.16861 20979 ft 374 kts 286°
2026-05-07 18:11 28.89267 -89.20573 20322 ft 371 kts 286°
2026-05-07 18:11 28.90145 -89.23329 19840 ft 369 kts 286°
2026-05-07 18:12 28.91018 -89.26072 19349 ft 367 kts 286°
2026-05-07 18:12 28.91887 -89.28803 18869 ft 365 kts 286°
2026-05-07 18:12 28.92751 -89.31521 18388 ft 363 kts 285°
2026-05-07 18:12 28.93610 -89.34226 17868 ft 361 kts 285°
2026-05-07 18:13 28.94463 -89.36915 17371 ft 360 kts 286°
2026-05-07 18:13 28.95315 -89.39602 16902 ft 359 kts 286°
2026-05-07 18:13 28.96164 -89.42279 16429 ft 358 kts 286°
2026-05-07 18:13 28.97011 -89.44958 15959 ft 358 kts 286°
2026-05-07 18:14 28.97856 -89.47627 15483 ft 357 kts 286°
2026-05-07 18:14 28.98686 -89.50254 15019 ft 356 kts 286°
2026-05-07 18:14 28.99525 -89.52911 14552 ft 356 kts 286°
2026-05-07 18:14 29.00364 -89.55567 14082 ft 355 kts 286°
2026-05-07 18:15 29.01198 -89.58211 13588 ft 354 kts 286°
2026-05-07 18:15 29.02028 -89.60845 13119 ft 350 kts 286°
2026-05-07 18:15 29.02847 -89.63446 12659 ft 347 kts 287°
2026-05-07 18:15 29.03660 -89.66030 12204 ft 344 kts 287°
2026-05-07 18:16 29.04463 -89.68588 11757 ft 341 kts 287°
2026-05-07 18:16 29.05262 -89.71129 11301 ft 337 kts 287°
2026-05-07 18:16 29.06029 -89.73564 10862 ft 315 kts 287°
2026-05-07 18:16 29.06746 -89.75846 10461 ft 295 kts 287°
2026-05-07 18:17 29.07416 -89.77989 10075 ft 279 kts 288°
2026-05-07 18:17 29.08055 -89.80032 9696 ft 268 kts 288°
2026-05-07 18:17 29.08679 -89.82024 9340 ft 265 kts 288°
2026-05-07 18:17 29.09301 -89.84013 8995 ft 266 kts 288°
2026-05-07 18:18 29.09925 -89.86011 8650 ft 268 kts 288°
2026-05-07 18:18 29.10553 -89.88019 8295 ft 268 kts 288°
2026-05-07 18:18 29.11181 -89.90028 7941 ft 269 kts 288°
2026-05-07 18:18 29.11808 -89.92037 7588 ft 268 kts 288°
2026-05-07 18:19 29.12433 -89.94040 7233 ft 267 kts 288°
2026-05-07 18:19 29.13057 -89.96040 6885 ft 267 kts 288°
2026-05-07 18:19 29.13679 -89.98037 6528 ft 266 kts 288°
2026-05-07 18:19 29.14300 -90.00030 6163 ft 266 kts 288°
2026-05-07 18:20 29.14919 -90.02020 5814 ft 265 kts 288°
2026-05-07 18:20 29.15534 -90.03997 5464 ft 264 kts 288°
2026-05-07 18:20 29.16148 -90.05977 5117 ft 264 kts 288°
2026-05-07 18:20 29.16765 -90.07958 4766 ft 265 kts 288°
2026-05-07 18:21 29.17381 -90.09941 4405 ft 263 kts 288°
2026-05-07 18:21 29.18147 -90.11835 4055 ft 261 kts 296°
2026-05-07 18:21 29.18971 -90.13683 3725 ft 261 kts 295°
2026-05-07 18:21 29.19772 -90.15536 3391 ft 255 kts 295°
2026-05-07 18:22 29.20519 -90.17259 3040 ft 230 kts 295°
2026-05-07 18:22 29.20979 -90.18309 2838 ft 218 kts 295°
2026-05-07 18:22 29.21864 -90.20338 2460 ft 210 kts 295°
2026-05-07 18:22 29.22516 -90.21837 2191 ft 211 kts 295°
2026-05-07 18:23 29.23170 -90.23338 1993 ft 208 kts 295°
2026-05-07 18:23 29.23822 -90.24791 1995 ft 205 kts 296°
2026-05-07 18:23 29.24587 -90.26187 1935 ft 212 kts 311°
2026-05-07 18:23 29.25924 -90.26827 1863 ft 219 kts 353°
2026-05-07 18:24 29.27417 -90.26457 1950 ft 222 kts 14°
2026-05-07 18:24 29.28961 -90.26257 2006 ft 218 kts 359°
2026-05-07 18:24 29.30324 -90.26271 1981 ft 180 kts 358°
2026-05-07 18:24 29.31574 -90.26261 1983 ft 182 kts 358°
2026-05-07 18:25 29.32827 -90.26246 1988 ft 182 kts 358°
2026-05-07 18:25 29.34116 -90.26232 1744 ft 184 kts 358°
2026-05-07 18:25 29.35376 -90.26217 1513 ft 179 kts 359°
2026-05-07 18:25 29.36580 -90.26201 1295 ft 163 kts 359°
2026-05-07 18:26 29.37649 -90.26187 1071 ft 144 kts 359°
2026-05-07 18:26 29.38615 -90.26175 895 ft 135 kts 359°
2026-05-07 18:26 29.39541 -90.26164 734 ft 131 kts
2026-05-07 18:26 29.40441 -90.26152 573 ft 127 kts
2026-05-07 18:27 29.41317 -90.26142 407 ft 125 kts
2026-05-07 18:27 29.42196 -90.26135 242 ft 127 kts
2026-05-07 18:27 29.43069 -90.26122 54 ft 122 kts
2026-05-07 18:27 29.43598 -90.26117 9 ft 107 kts
2026-05-07 18:28 29.44311 -90.26111 4 ft 47 kts
2026-05-07 18:28 29.44563 -90.26107 4 ft 23 kts
2026-05-07 18:28 29.44661 -90.26156 5 ft 16 kts 276°
2026-05-07 18:28 29.44662 -90.26319 5 ft 18 kts 269°
2026-05-07 18:29 29.44662 -90.26353 5 ft 0 kts 270°
2026-05-07 18:29 29.44662 -90.26354 5 ft 2 kts 280°
2026-05-07 18:29 29.44701 -90.26364 5 ft 5 kts 321°
2026-05-07 18:30 29.44691 -90.26380 5 ft 3 kts 192°
2026-05-07 18:30 29.44686 -90.26380 5 ft 0 kts 181°